Regional Weather Roundup
Issued by NWS

Home | Current Version | Previous Version | Graphics & Text | Print | Product List | Glossary On
Versions: 1 2 3 4 5 6 7 8 9 10 11 12 13 14 15 16 17 18 19 20 21 22 23 24 25 26 27
000
ASUS45 KSLC 281910
RWRUT

UTAH REGIONAL WEATHER ROUNDUP
NATIONAL WEATHER SERVICE SALT LAKE CITY UT
100 PM MDT THU JUL 28 2016

UTZ001>011-023>025-282000-

NORTHERN UTAH

CITY           SKY/WX    TMP DP  RH WIND       PRES   REMARKS
BRIGHAM CITY     N/A     93  32  11 NE3       30.10F
HILL AFB       MOSUNNY   92  40  16 N7        30.15
LOGAN          SUNNY     87  39  18 CALM      30.13F
OGDEN          SUNNY     92  38  15 VRB6      30.12S
PROVO AIRPORT  MOSUNNY   88  43  20 SW6       30.12F
SALT LAKE CITY MOSUNNY   97  33  10 W8        30.09F HX  91
VERNAL         SUNNY     88  25  10 VRB3      30.15F
WENDOVER       SUNNY     91  37  15 SE10      30.12F
HEBER CITY     SUNNY     90  34  13 CALM      30.18F
WEST JORDAN    SUNNY     91  43  18 N6        30.13F

$$

UTZ012>022-026-027-282000-

SOUTHERN/CENTRAL UTAH

CITY           SKY/WX    TMP DP  RH WIND       PRES   REMARKS
BLANDING       SUNNY     91  41  17 SE3       30.29F
BRYCE CANYON   PTSUNNY   89  21   8 N9G22     30.36F
CEDAR CITY     SUNNY     97  34  11 W5        30.17F HX  91
DELTA          SUNNY     97  32  10 SW5       30.12F HX  91
MILFORD        SUNNY    100  24   6 N9G17     30.13F HX  93
MOAB/CYNLANDS  SUNNY    101  28   7 SE7       30.05F HX  94
PRICE          MOSUNNY   96  24   7 SW8       30.19F HX  90
ST GEORGE      CLEAR    104  46  14 CALM      29.94F HX 100

$$

REGIONAL REPORTS     COLORADO/ARIZONA

CITY           SKY/WX    TMP DP  RH WIND       PRES   REMARKS
CRAIG, CO      SUNNY     89  23   9 NW9       30.23F
GRAND JUNCTION SUNNY     95  28   9 VRB3      30.10F
RIFLE          SUNNY     93  31  11 N5        30.15F
MONTROSE       SUNNY     93  32  11 N6        30.19F
CORTEZ         SUNNY     93  43  17 SW7       30.21F
PAGE, AZ       SUNNY    102  31   8 MISG      30.05F HX  95
GRAND CANYON   SUNNY     93  38  14 VRB6G17   30.30F
KINGMAN        SUNNY    102  50  17 SW17G25   30.03F HX  99
FLAGSTAFF      SUNNY     86  40  19 CALM      30.32F

$$

REGIONAL REPORTS    NEVADA/IDAHO/WYOMING

CITY           SKY/WX    TMP DP  RH WIND       PRES   REMARKS
LAS VEGAS, NV  PTSUNNY  106  40  10 CALM      29.85F HX 100
ELY            SUNNY     94  24   8 N12G17    30.24F
ELKO           SUNNY     94  26   9 CALM      30.17F
POCATELLO, ID  SUNNY     89  46  22 NW9       30.15F
BURLEY         SUNNY     85  47  26 W3        30.13F
EVANSTON, WY   SUNNY     87  27  11 W15       30.31F
ROCK SPRINGS   SUNNY     81  39  22 W7        30.29F
KEMMERER         N/A    N/A N/A N/A W21G30    30.33F

$$




USA.gov is the U.S. government's official web portal to all federal, state and local government web resources and services.